TimeEST,TemperatureF,Dew PointF,Humidity,Sea Level PressureIn,VisibilityMPH,Wind Direction,Wind SpeedMPH,Gust SpeedMPH,PrecipitationIn,Events,Conditions,WindDirDegrees,DateUTC
12:53 AM,60.1,43.0,53,30.16,10.0,Variable,3.5,-,N/A,,Clear,0,2012-11-12 05:53:00
1:53 AM,59.0,44.1,58,30.14,10.0,Calm,Calm,-,N/A,,Clear,0,2012-11-12 06:53:00
2:53 AM,59.0,44.1,58,30.15,10.0,Variable,3.5,-,N/A,,Clear,0,2012-11-12 07:53:00
3:53 AM,60.1,45.0,57,30.14,10.0,Variable,3.5,-,N/A,,Clear,0,2012-11-12 08:53:00
4:53 AM,59.0,45.0,60,30.13,10.0,SW,3.5,-,N/A,,Clear,220,2012-11-12 09:53:00
5:53 AM,59.0,46.0,62,30.13,10.0,SW,3.5,-,N/A,,Clear,220,2012-11-12 10:53:00
6:53 AM,57.2,46.4,67,30.16,10.0,Variable,4.6,-,N/A,,Clear,0,2012-11-12 11:53:00
7:53 AM,59.0,46.9,64,30.16,10.0,South,4.6,-,N/A,,Mostly Cloudy,190,2012-11-12 12:53:00
8:53 AM,59.0,48.0,67,30.16,10.0,Variable,5.8,-,0.00,Rain,Light Rain,0,2012-11-12 13:53:00
9:53 AM,61.0,48.9,64,30.14,10.0,Calm,Calm,-,0.00,,Overcast,0,2012-11-12 14:53:00
10:53 AM,63.0,48.9,60,30.09,10.0,Variable,3.5,-,N/A,,Mostly Cloudy,0,2012-11-12 15:53:00
11:53 AM,64.9,48.0,54,30.08,10.0,Calm,Calm,-,0.00,,Overcast,0,2012-11-12 16:53:00
12:53 PM,64.0,48.9,58,30.05,10.0,Variable,3.5,-,0.00,,Overcast,0,2012-11-12 17:53:00
1:20 PM,57.2,51.8,82,30.12,1.8,West,12.7,24.2,0.03,Rain,Heavy Rain,280,2012-11-12 18:20:00
1:24 PM,55.4,51.8,88,30.12,1.0,West,12.7,24.2,0.06,Rain,Heavy Rain,270,2012-11-12 18:24:00
1:34 PM,53.6,51.8,94,30.12,1.8,West,12.7,19.6,0.12,Rain,Rain,280,2012-11-12 18:34:00
1:38 PM,51.8,51.8,100,30.12,2.0,West,11.5,18.4,0.12,Rain,Rain,280,2012-11-12 18:38:00
1:53 PM,51.1,50.0,96,30.12,2.5,Variable,3.5,-,0.16,Rain,Rain,0,2012-11-12 18:53:00
2:04 PM,51.8,50.0,94,30.14,3.0,WNW,6.9,-,0.01,Rain,Light Rain,300,2012-11-12 19:04:00
2:24 PM,50.0,48.2,94,30.15,2.0,WSW,5.8,-,0.03,Rain,Rain,250,2012-11-12 19:24:00
2:32 PM,50.0,50.0,100,30.15,1.5,West,8.1,-,0.06,Rain,Rain,260,2012-11-12 19:32:00
2:39 PM,50.0,48.2,94,30.16,1.8,West,11.5,25.3,0.07,Rain,Rain,260,2012-11-12 19:39:00
2:53 PM,48.9,46.9,93,30.17,1.2,West,9.2,24.2,0.11,Rain,Heavy Rain,260,2012-11-12 19:53:00
3:00 PM,48.2,46.4,93,30.19,1.2,West,9.2,28.8,0.03,Rain,Rain,260,2012-11-12 20:00:00
3:07 PM,48.2,46.4,93,30.19,1.8,Variable,6.9,28.8,0.05,Rain,Rain,0,2012-11-12 20:07:00
3:12 PM,48.2,46.4,93,30.19,3.0,West,11.5,21.9,0.06,Rain,Light Rain,280,2012-11-12 20:12:00
3:53 PM,46.9,45.0,93,30.22,2.0,WNW,9.2,19.6,0.11,Rain,Rain,300,2012-11-12 20:53:00
4:00 PM,46.4,44.6,93,30.23,3.0,WNW,11.5,20.7,0.01,Rain,Light Rain,290,2012-11-12 21:00:00
4:22 PM,44.6,42.8,93,30.26,6.0,West,9.2,16.1,0.01,Rain,Light Rain,260,2012-11-12 21:22:00
4:48 PM,44.6,42.8,93,30.27,5.0,Variable,5.8,-,0.04,Rain,Light Rain,0,2012-11-12 21:48:00
4:53 PM,44.1,43.0,96,30.27,6.0,WSW,4.6,-,0.04,Rain,Light Rain,240,2012-11-12 21:53:00
5:30 PM,41.0,39.2,93,30.30,8.0,Variable,6.9,-,0.02,Rain,Light Rain,0,2012-11-12 22:30:00
5:42 PM,41.0,39.2,93,30.30,10.0,Variable,3.5,16.1,0.02,Rain,Light Rain,0,2012-11-12 22:42:00
5:53 PM,39.9,37.9,93,30.31,10.0,Variable,6.9,-,0.02,Rain,Light Rain,0,2012-11-12 22:53:00
6:53 PM,39.0,35.1,86,30.32,10.0,Variable,4.6,-,0.00,Rain,Light Rain,0,2012-11-12 23:53:00
7:53 PM,39.0,36.0,89,30.33,10.0,Calm,Calm,-,0.00,,Mostly Cloudy,0,2012-11-13 00:53:00
8:45 PM,37.4,35.6,93,30.36,10.0,WNW,5.8,-,N/A,,Mostly Cloudy,290,2012-11-13 01:45:00
8:53 PM,37.9,35.1,89,30.37,10.0,WNW,4.6,-,N/A,,Mostly Cloudy,290,2012-11-13 01:53:00
9:18 PM,37.4,33.8,87,30.37,10.0,West,8.1,-,N/A,,Scattered Clouds,280,2012-11-13 02:18:00
9:32 PM,35.6,35.6,100,30.38,10.0,Variable,4.6,-,N/A,,Mostly Cloudy,0,2012-11-13 02:32:00
9:44 PM,35.6,33.8,93,30.39,10.0,West,4.6,-,N/A,,Mostly Cloudy,260,2012-11-13 02:44:00
9:53 PM,35.1,33.1,92,30.40,10.0,Variable,4.6,-,N/A,,Scattered Clouds,0,2012-11-13 02:53:00
10:53 PM,34.0,30.9,89,30.41,10.0,West,4.6,-,N/A,,Clear,270,2012-11-13 03:53:00
11:53 PM,33.1,30.9,92,30.43,10.0,WSW,3.5,-,N/A,,Clear,250,2012-11-13 04:53:00